EA8CHC Sevilla ES current weather conditions

sailwx.info

Wind from 077 at 3 knots gusting 6

Air temperature 13.9° C
Dewpoint 9.5° C

Last reported at 2014-Dec-21 12:52 UTC.
Time now 2014-Dec-21 13:32 UTC

Location: N 37°26' W 006°03'.
View on Google Maps.

See reports from other nearby stations

  
Tides and Currents Weather Stations Pressure Air Temp Water Temp Dewpoint Dewpoint Depression Visibility Wind Speed Wind Dir Waves Ship Positions
date/time (UTC)wind fromknots sea level pressurealtimeterstation pressurevisibilityair tempwater tempwave heightnotes
2014-Dec-21 12:52 077 3 gusting 6 13.9
2014-Dec-21 12:47 064 3 gusting 6 13.9
2014-Dec-21 12:42 056 2 gusting 5 13.9
2014-Dec-21 12:37 062 2 gusting 6 13.9
2014-Dec-21 12:32 082 3 gusting 7 13.9
2014-Dec-21 12:27 088 3 gusting 9 13.9
2014-Dec-21 12:22 071 4 gusting 9 13.9
2014-Dec-21 12:17 060 4 gusting 6 13.3
2014-Dec-21 12:12 083 4 gusting 8 13.3
2014-Dec-21 12:07 100 4 gusting 8 13.3
2014-Dec-21 12:02 079 4 gusting 8 13.3
2014-Dec-21 11:57 061 3 gusting 6 12.8
2014-Dec-21 11:52 079 3 gusting 6 12.8
2014-Dec-21 11:47 075 3 gusting 6 12.8
2014-Dec-21 11:42 076 4 gusting 6 12.2
2014-Dec-21 11:37 073 3 gusting 6 12.2
2014-Dec-21 11:32 072 1 gusting 3 11.7
2014-Dec-21 11:27 071 0 gusting 3 11.7
2014-Dec-21 11:22 071 0 gusting 3 11.7
2014-Dec-21 11:17 065 1 gusting 5 11.1
2014-Dec-21 11:12 065 2 gusting 5 11.1
2014-Dec-21 11:07 044 2 gusting 5 11.1
2014-Dec-21 11:02 040 2 gusting 4 10.6
2014-Dec-21 10:57 074 2 gusting 4 10.6
2014-Dec-21 10:52 054 0 gusting 3 10.6
2014-Dec-21 10:47 060 0 gusting 4 10.6
2014-Dec-21 10:42 061 1 gusting 4 10.6
2014-Dec-21 10:37 047 1 gusting 4 10.6
2014-Dec-21 10:32 009 0 gusting 3 10.6
2014-Dec-21 10:27 009 0 gusting 3 10.0
2014-Dec-21 10:22 009 10.0
2014-Dec-21 10:17 009 0 gusting 3 10.0
2014-Dec-21 10:12 009 1 gusting 3 9.4
2014-Dec-21 10:07 014 0 gusting 2 9.4
2014-Dec-21 10:02 011 0 gusting 3 9.4
2014-Dec-21 09:57 011 1 gusting 3 8.9
2014-Dec-21 09:52 011 1 gusting 3 8.9
2014-Dec-21 09:47 355 0 gusting 3 8.3
2014-Dec-21 09:42 334 0 gusting 3 8.3
2014-Dec-21 09:37 306 0 gusting 3 8.3
2014-Dec-21 09:32 306 0 gusting 3 7.8
2014-Dec-21 09:27 306 1 gusting 3 7.8
2014-Dec-21 09:22 306 1 gusting 3 7.8
2014-Dec-21 09:17 307 1 gusting 4 7.2
2014-Dec-21 09:12 304 1 gusting 4 7.2
2014-Dec-21 09:07 305 2 gusting 4 7.2
2014-Dec-21 09:02 302 2 gusting 4 7.2
2014-Dec-21 08:57 302 2 gusting 4 7.2
2014-Dec-21 08:52 312 2 gusting 4 7.2
2014-Dec-21 08:47 293 2 gusting 4 7.2
2014-Dec-21 08:42 295 1 gusting 4 6.7
2014-Dec-21 08:37 309 1 gusting 4 7.2
2014-Dec-21 08:32 323 1 gusting 3 6.7
2014-Dec-21 08:27 284 1 gusting 3 6.7
2014-Dec-21 08:22 284 1 gusting 3 6.7
2014-Dec-21 08:17 284 2 gusting 4 6.7
2014-Dec-21 08:12 284 2 gusting 4 6.7
2014-Dec-21 08:07 286 2 gusting 4 6.7
2014-Dec-21 08:02 287 2 gusting 4 6.7
2014-Dec-21 07:57 282 2 gusting 3 6.1
2014-Dec-21 07:52 300 2 gusting 3 6.1
2014-Dec-21 07:47 317 1 gusting 3 6.7
2014-Dec-21 07:42 317 2 gusting 3 6.7
2014-Dec-21 07:37 311 2 gusting 3 6.7
2014-Dec-21 07:32 311 2 gusting 3 6.7
2014-Dec-21 07:27 308 2 gusting 3 6.7
2014-Dec-21 07:22 310 2 gusting 3 6.7
2014-Dec-21 07:17 310 1 gusting 2 6.7
2014-Dec-21 07:12 310 1 gusting 2 6.7
2014-Dec-21 07:07 310 1 gusting 2 6.7
2014-Dec-21 07:02 310 1 gusting 2 6.7
2014-Dec-21 06:57 310 0 gusting 2 6.7
2014-Dec-21 06:52 310 6.7
2014-Dec-21 06:47 310 6.7
2014-Dec-21 06:42 310 6.7
2014-Dec-21 06:37 310 6.1
2014-Dec-21 06:32 310 6.1
2014-Dec-21 06:27 310 6.7
2014-Dec-21 06:22 310 6.7
2014-Dec-21 06:17 310 0 gusting 2 6.7
2014-Dec-21 06:12 310 1 gusting 2 6.7
2014-Dec-21 06:07 310 0 gusting 2 6.7
2014-Dec-21 06:02 310 6.7
2014-Dec-21 05:57 310 6.7
2014-Dec-21 05:52 310 6.7
2014-Dec-21 05:47 310 0 gusting 2 6.7
2014-Dec-21 05:42 310 1 gusting 2 6.7
2014-Dec-21 05:37 310 1 gusting 2 6.7
2014-Dec-21 05:32 310 1 gusting 3 6.7
2014-Dec-21 05:27 310 1 gusting 3 6.7
2014-Dec-21 05:22 310 1 gusting 3 6.7
2014-Dec-21 05:17 310 0 gusting 1 6.7
2014-Dec-21 05:12 310 6.7
2014-Dec-21 05:07 310 0 gusting 1 7.2
2014-Dec-21 05:02 310 0 gusting 1 7.2
2014-Dec-21 04:57 310 7.2
2014-Dec-21 04:52 310 7.2
2014-Dec-21 04:47 310 7.2
2014-Dec-21 04:42 310 7.2
2014-Dec-21 04:37 310 7.2
2014-Dec-21 04:32 310 7.2
2014-Dec-21 04:27 310 7.2
2014-Dec-21 04:22 310 7.2
2014-Dec-21 04:17 310 7.2
2014-Dec-21 04:12 310 7.2
2014-Dec-21 04:02 310 6.7
2014-Dec-21 03:57 310 6.7
2014-Dec-21 03:52 310 6.7
2014-Dec-21 03:47 310 6.7
2014-Dec-21 03:42 310 7.2
2014-Dec-21 03:37 310 7.2
2014-Dec-21 03:32 310 7.2
2014-Dec-21 03:27 310 7.2
2014-Dec-21 03:22 310 7.2
2014-Dec-21 03:17 310 7.2
2014-Dec-21 03:12 310 7.2
2014-Dec-21 03:07 310 7.2
2014-Dec-21 03:02 310 0 gusting 1 7.2
2014-Dec-21 02:57 310 0 gusting 2 7.2
2014-Dec-21 02:52 310 1 gusting 2 7.2
2014-Dec-21 02:47 310 0 gusting 2 7.2
2014-Dec-21 02:42 310 7.2
2014-Dec-21 02:37 310 7.2
2014-Dec-21 02:32 310 7.8
2014-Dec-21 02:27 310 7.8
2014-Dec-21 02:22 310 7.8
2014-Dec-21 02:17 310 7.8
2014-Dec-21 02:12 310 7.8
2014-Dec-21 02:07 310 7.8
2014-Dec-21 02:02 310 7.8
2014-Dec-21 01:57 310 8.3
2014-Dec-21 01:52 310 8.3
2014-Dec-21 01:47 310 8.3
2014-Dec-21 01:42 310 8.3
2014-Dec-21 01:37 310 0 gusting 2 8.3
2014-Dec-21 01:32 310 1 gusting 2 8.3
2014-Dec-21 01:27 310 1 gusting 2 8.3
2014-Dec-21 01:22 310 1 gusting 2 8.3
2014-Dec-21 01:17 310 0 gusting 2 8.3
2014-Dec-21 01:07 310 1 gusting 3 8.3
2014-Dec-21 01:02 310 1 gusting 3 8.3
2014-Dec-21 00:57 310 1 gusting 3 8.3
2014-Dec-21 00:52 310 1 gusting 2 8.3
2014-Dec-21 00:47 310 1 gusting 2 8.3
2014-Dec-21 00:42 310 1 gusting 2 8.3
2014-Dec-21 00:37 310 1 gusting 2 8.3
2014-Dec-21 00:32 310 1 gusting 3 8.9
2014-Dec-21 00:27 310 1 gusting 3 8.9
2014-Dec-21 00:22 310 0 gusting 2 8.9
2014-Dec-21 00:17 310 8.9
2014-Dec-21 00:12 310 9.4
2014-Dec-21 00:07 310 9.4
2014-Dec-21 00:02 310 9.4
2014-Dec-20 23:57 310 9.4
2014-Dec-20 23:52 310 9.4
2014-Dec-20 23:47 310 9.4
2014-Dec-20 23:42 310 9.4
2014-Dec-20 23:37 310 10.0
2014-Dec-20 23:32 310 10.0
2014-Dec-20 23:27 310 10.0
2014-Dec-20 23:22 310 10.6
2014-Dec-20 23:17 310 10.6
2014-Dec-20 23:12 310 10.6
2014-Dec-20 23:07 310 10.6
2014-Dec-20 23:02 310 10.6
2014-Dec-20 22:57 310 10.6
2014-Dec-20 22:52 310 10.6
2014-Dec-20 22:47 310 0 gusting 3 10.6
2014-Dec-20 22:42 310 1 gusting 3 10.6
2014-Dec-20 22:37 310 1 gusting 2 10.6
2014-Dec-20 22:32 310 0 gusting 2 10.6
2014-Dec-20 22:27 310 0 gusting 3 10.6
2014-Dec-20 22:22 310 1 gusting 3 10.6
2014-Dec-20 22:17 310 2 gusting 3 10.6
2014-Dec-20 22:12 310 2 gusting 3 10.6
2014-Dec-20 22:07 310 2 gusting 3 10.6
2014-Dec-20 22:02 310 1 gusting 3 10.6
2014-Dec-20 21:57 310 2 gusting 3 10.6
2014-Dec-20 21:52 310 2 gusting 3 10.6
2014-Dec-20 21:47 310 1 gusting 3 10.6
2014-Dec-20 21:42 310 1 gusting 3 10.6
2014-Dec-20 21:37 310 0 gusting 3 10.6
2014-Dec-20 21:32 310 0 gusting 3 10.6
2014-Dec-20 21:27 310 1 gusting 3 10.6
2014-Dec-20 21:22 310 1 gusting 2 10.6
2014-Dec-20 21:17 310 1 gusting 3 10.6
2014-Dec-20 21:12 310 1 gusting 3 10.6
2014-Dec-20 21:07 310 1 gusting 4 10.6
2014-Dec-20 21:02 310 2 gusting 4 10.6
2014-Dec-20 20:57 311 2 gusting 4 11.1
2014-Dec-20 20:52 301 2 gusting 4 11.1
2014-Dec-20 20:47 340 1 gusting 4 11.1
2014-Dec-20 20:42 350 2 gusting 5 11.1
2014-Dec-20 20:37 339 2 gusting 5 11.1
2014-Dec-20 20:32 331 2 gusting 5 11.1
2014-Dec-20 20:27 330 2 gusting 5 11.1
2014-Dec-20 20:22 307 2 gusting 5 11.7
2014-Dec-20 20:17 309 2 gusting 4 11.7
2014-Dec-20 20:12 306 2 gusting 4 12.2
2014-Dec-20 20:07 288 2 gusting 4 12.2
2014-Dec-20 20:02 281 2 gusting 4 12.8
2014-Dec-20 19:57 275 3 gusting 4 12.8
2014-Dec-20 19:52 273 2 gusting 4 12.8
2014-Dec-20 19:47 288 2 gusting 5 12.8
2014-Dec-20 19:42 294 2 gusting 5 12.8
2014-Dec-20 19:37 278 3 gusting 5 12.8
2014-Dec-20 19:32 277 3 gusting 5 12.8
2014-Dec-20 19:27 292 3 gusting 5 12.8
2014-Dec-20 19:22 284 3 gusting 5 12.8
2014-Dec-20 19:17 289 3 gusting 4 12.8
2014-Dec-20 19:12 283 3 gusting 4 13.3
2014-Dec-20 19:07 275 3 gusting 4 13.3
2014-Dec-20 19:02 281 3 gusting 4 13.3
2014-Dec-20 18:57 281 3 gusting 4 13.3
2014-Dec-20 18:52 283 2 gusting 5 13.3
2014-Dec-20 18:47 283 3 gusting 5 13.3
2014-Dec-20 18:42 283 3 gusting 5 13.3
2014-Dec-20 18:37 277 3 gusting 4 13.3
2014-Dec-20 18:32 284 2 gusting 3 13.3
2014-Dec-20 18:27 284 2 gusting 4 13.3
2014-Dec-20 18:22 284 3 gusting 4 13.9
2014-Dec-20 18:17 285 2 gusting 4 13.9
2014-Dec-20 18:12 291 2 gusting 3 13.9
2014-Dec-20 18:07 291 2 gusting 3 13.9
2014-Dec-20 18:02 291 2 gusting 3 13.9
2014-Dec-20 17:57 291 2 gusting 3 13.9
2014-Dec-20 17:52 291 2 gusting 3 13.9
2014-Dec-20 17:47 291 2 gusting 3 13.9
2014-Dec-20 17:42 291 1 gusting 3 13.9
2014-Dec-20 17:37 291 2 gusting 3 13.9
2014-Dec-20 17:32 291 2 gusting 3 13.9
2014-Dec-20 17:27 291 2 gusting 3 13.9
2014-Dec-20 17:22 291 2 gusting 3 13.9
2014-Dec-20 17:17 046 2 gusting 3 14.4
2014-Dec-20 17:12 046 1 gusting 3 14.4
2014-Dec-20 17:07 046 0 gusting 1 15.0
2014-Dec-20 17:02 050 15.0
2014-Dec-20 16:57 050 15.6
2014-Dec-20 16:52 050 15.6
2014-Dec-20 16:47 050 15.6
2014-Dec-20 16:42 050 15.6
2014-Dec-20 16:37 050 15.6
2014-Dec-20 16:32 050 15.6
2014-Dec-20 16:27 050 15.6
2014-Dec-20 16:22 050 15.6
2014-Dec-20 16:17 050 16.1
2014-Dec-20 16:12 050 16.1
2014-Dec-20 16:07 050 16.1
2014-Dec-20 16:02 050 16.1
2014-Dec-20 15:57 050 15.6
2014-Dec-20 15:52 050 15.6
2014-Dec-20 15:47 050 15.6
2014-Dec-20 15:42 050 15.6
2014-Dec-20 15:37 050 15.6
2014-Dec-20 15:32 050 15.0
2014-Dec-20 15:27 050 1 gusting 4 15.0
2014-Dec-20 15:22 050 0 gusting 4 15.0
2014-Dec-20 15:17 020 15.0
2014-Dec-20 15:12 016 14.4
2014-Dec-20 15:07 016 0 gusting 3 14.4
2014-Dec-20 15:02 016 0 gusting 3 13.9
2014-Dec-20 14:57 016 13.9
2014-Dec-20 14:52 016 13.3
2014-Dec-20 14:47 015 13.3
2014-Dec-20 14:42 016 12.8
2014-Dec-20 14:37 016 0 gusting 2 12.8
2014-Dec-20 14:32 015 0 gusting 3 12.8
2014-Dec-20 14:27 016 1 gusting 3 12.2
2014-Dec-20 14:22 015 1 gusting 3 12.2
2014-Dec-20 14:17 340 0 gusting 3 12.2
2014-Dec-20 14:12 321 0 gusting 2 12.2
2014-Dec-20 14:07 321 0 gusting 2 12.2
2014-Dec-20 14:02 327 0 gusting 2 11.7
2014-Dec-20 13:57 327 0 gusting 3 11.7
2014-Dec-20 13:52 327 0 gusting 3 11.7
2014-Dec-20 13:47 327 0 gusting 3 11.1
2014-Dec-20 13:42 327 0 gusting 2 11.1
2014-Dec-20 13:37 327 0 gusting 2 11.1
2014-Dec-20 13:32 327 0 gusting 2 10.6
2014-Dec-20 13:27 327 10.6
2014-Dec-20 13:22 327 0 gusting 2 10.6
2014-Dec-20 13:17 327 0 gusting 2 10.0
2014-Dec-20 13:12 327 0 gusting 3 10.0
2014-Dec-20 13:07 327 1 gusting 3 10.0
2014-Dec-20 13:02 327 1 gusting 2 9.4
2014-Dec-20 12:57 332 0 gusting 3 9.4
2014-Dec-20 12:52 332 0 gusting 3 9.4
2014-Dec-20 12:47 333 0 gusting 3 9.4
2014-Dec-20 12:42 333 1 gusting 3 8.9
2014-Dec-20 12:37 332 1 gusting 3 8.9
2014-Dec-20 12:32 329 1 gusting 3 8.9
2014-Dec-20 12:27 333 0 gusting 2 8.9
2014-Dec-20 12:22 048 0 gusting 2 8.3
2014-Dec-20 12:17 048 0 gusting 2 8.3
2014-Dec-20 12:12 068 0 gusting 1 8.3
2014-Dec-20 12:07 068 8.3
2014-Dec-20 12:02 068 8.3
2014-Dec-20 11:57 068 8.3
2014-Dec-20 11:52 068 8.3
2014-Dec-20 11:47 068 7.8
2014-Dec-20 11:42 060 7.8
2014-Dec-20 11:37 061 7.8
2014-Dec-20 11:32 061 7.8
2014-Dec-20 11:27 040 7.2
2014-Dec-20 11:22 040 7.2
2014-Dec-20 11:17 040 7.2
2014-Dec-20 11:12 040 0 gusting 2 7.2
2014-Dec-20 11:07 040 0 gusting 0 7.2
2014-Dec-20 11:02 040 7.2
2014-Dec-20 10:57 040 7.2
2014-Dec-20 10:52 040 7.2
2014-Dec-20 10:47 040 7.2
2014-Dec-20 10:42 040 7.2
2014-Dec-20 10:37 040 6.7
2014-Dec-20 10:32 040 0 gusting 2 6.7
2014-Dec-20 10:27 040 0 gusting 3 6.7
2014-Dec-20 10:22 040 0 gusting 3 6.7
2014-Dec-20 10:17 040 0 gusting 3 6.7
2014-Dec-20 10:12 041 0 gusting 2 6.7
2014-Dec-20 10:07 041 6.7
2014-Dec-20 10:02 024 6.7
2014-Dec-20 09:57 024 0 gusting 3 6.1
2014-Dec-20 09:52 024 1 gusting 3 6.1
2014-Dec-20 09:47 052 1 gusting 2 6.1
2014-Dec-20 09:42 043 0 gusting 2 6.1
2014-Dec-20 09:37 043 0 gusting 2 6.1
2014-Dec-20 09:32 032 0 gusting 2 6.1
2014-Dec-20 09:27 033 6.1
2014-Dec-20 09:22 037 0 gusting 2 6.1
2014-Dec-20 09:17 033 1 gusting 2 6.1
2014-Dec-20 09:12 034 0 gusting 2 6.1
2014-Dec-20 09:07 033 6.1
2014-Dec-20 09:02 033 6.1
2014-Dec-20 08:57 034 6.1
2014-Dec-20 08:52 034 0 gusting 2 6.1
2014-Dec-20 08:47 034 0 gusting 2 6.1
2014-Dec-20 08:42 033 0 gusting 1 6.1
2014-Dec-20 08:37 034 0 gusting 2 6.1
2014-Dec-20 08:32 034 6.1
2014-Dec-20 08:27 034 0 gusting 3 6.1
2014-Dec-20 08:22 033 0 gusting 3 6.1
2014-Dec-20 08:17 033 0 gusting 2 6.1
2014-Dec-20 08:12 072 0 gusting 2 6.1
2014-Dec-20 08:07 072 1 gusting 4 6.1
2014-Dec-20 08:02 072 1 gusting 4 6.1
2014-Dec-20 07:57 072 1 gusting 4 6.1
2014-Dec-20 07:52 074 0 gusting 3 6.1
2014-Dec-20 07:47 074 0 gusting 3 6.1
2014-Dec-20 07:42 074 1 gusting 3 6.1
2014-Dec-20 07:37 074 1 gusting 3 6.7
2014-Dec-20 07:32 074 1 gusting 2 6.7
2014-Dec-20 07:27 074 0 gusting 2 6.7
2014-Dec-20 07:22 074 0 gusting 2 6.7
2014-Dec-20 07:17 074 0 gusting 3 6.7
2014-Dec-20 07:12 074 1 gusting 3 6.7
2014-Dec-20 07:07 074 2 gusting 3 6.7
2014-Dec-20 07:02 063 1 gusting 3 6.7
2014-Dec-20 06:57 056 1 gusting 2 7.2
2014-Dec-20 06:52 055 0 gusting 2 7.2
2014-Dec-20 06:47 026 0 gusting 2 7.2
2014-Dec-20 06:42 026 0 gusting 2 7.2
2014-Dec-20 06:37 020 7.8
2014-Dec-20 06:32 014 0 gusting 3 7.8
2014-Dec-20 06:27 014 0 gusting 3 7.8
2014-Dec-20 06:22 014 0 gusting 2 7.8
2014-Dec-20 06:17 013 0 gusting 2 7.8
2014-Dec-20 06:12 005 7.8
2014-Dec-20 06:07 005 7.8
2014-Dec-20 06:02 005 7.8
2014-Dec-20 05:57 005 0 gusting 3 7.8
2014-Dec-20 05:52 005 0 gusting 3 7.8
2014-Dec-20 05:47 7.8
2014-Dec-20 05:42 355 1 gusting 2 7.8
2014-Dec-20 05:37 355 1 gusting 2 7.8
2014-Dec-20 05:32 355 1 gusting 2 7.8
2014-Dec-20 05:27 355 0 7.8
2014-Dec-20 05:22 355 7.8
2014-Dec-20 05:17 355 7.8
2014-Dec-20 05:12 355 7.8
2014-Dec-20 05:07 355 7.8
2014-Dec-20 05:02 355 7.8
2014-Dec-20 04:57 355 7.8
2014-Dec-20 04:52 355 7.8
2014-Dec-20 04:47 355 7.8
2014-Dec-20 04:42 355 7.8
2014-Dec-20 04:37 355 7.8
2014-Dec-20 04:32 355 7.8
2014-Dec-20 04:27 355 7.8
2014-Dec-20 04:22 355 7.8
2014-Dec-20 04:17 355 7.8
2014-Dec-20 04:12 355 7.8
2014-Dec-20 04:07 355 7.8
2014-Dec-20 04:02 355 7.8
2014-Dec-20 03:57 355 7.8
2014-Dec-20 03:52 355 7.8
2014-Dec-20 03:47 355 7.8
2014-Dec-20 03:42 355 7.8
2014-Dec-20 03:37 355 0 gusting 2 7.8
2014-Dec-20 03:32 355 0 gusting 3 7.8
2014-Dec-20 03:27 355 1 gusting 3 7.8
2014-Dec-20 03:22 355 1 gusting 3 7.8
2014-Dec-20 03:17 351 1 gusting 2 7.8
2014-Dec-20 03:12 190 0 gusting 2 7.8
2014-Dec-20 03:07 190 7.8
2014-Dec-20 03:02 190 7.8
2014-Dec-20 02:57 190 7.8
2014-Dec-20 02:52 190 7.8
2014-Dec-20 02:47 190 7.8
2014-Dec-20 02:42 190 7.8
2014-Dec-20 02:37 190 7.8
2014-Dec-20 02:32 190 7.8
2014-Dec-20 02:27 190 7.8
2014-Dec-20 02:22 190 7.8
2014-Dec-20 02:17 190 7.8
2014-Dec-20 02:12 190 7.8
2014-Dec-20 02:07 190 7.8
2014-Dec-20 02:02 190 7.8
2014-Dec-20 01:57 190 7.8
2014-Dec-20 01:52 190 7.8
2014-Dec-20 01:47 190 7.2
2014-Dec-20 01:42 190 7.2
2014-Dec-20 01:37 190 7.2
2014-Dec-20 01:32 190 7.2
2014-Dec-20 01:27 190 0 gusting 1 7.2
2014-Dec-20 01:22 190 0 gusting 2 7.2
2014-Dec-20 01:17 190 0 gusting 2 7.2
2014-Dec-20 01:12 190 7.8
2014-Dec-20 01:07 190 7.8
2014-Dec-20 01:02 190 7.8
2014-Dec-20 00:57 190 7.8
2014-Dec-20 00:52 190 7.8
2014-Dec-20 00:47 190 7.8
2014-Dec-20 00:42 190 0 gusting 2 7.8
2014-Dec-20 00:37 190 0 gusting 2 7.8
2014-Dec-20 00:32 190 7.8
2014-Dec-20 00:27 190 7.8
2014-Dec-20 00:22 190 7.8
2014-Dec-20 00:17 190 7.8
2014-Dec-20 00:12 190 7.8
2014-Dec-20 00:07 190 7.8
2014-Dec-20 00:02 190 7.8
2014-Dec-19 23:57 190 7.8
2014-Dec-19 23:52 190 7.8
2014-Dec-19 23:47 190 7.8
2014-Dec-19 23:42 190 7.8
2014-Dec-19 23:37 190 7.8
2014-Dec-19 23:32 190 7.8
2014-Dec-19 23:27 190 7.8
2014-Dec-19 23:22 190 7.8
2014-Dec-19 23:17 190 7.8
2014-Dec-19 23:12 190 8.3
2014-Dec-19 23:07 190 8.3
2014-Dec-19 23:02 190 8.3
2014-Dec-19 22:57 190 8.3
2014-Dec-19 22:52 190 8.3
2014-Dec-19 22:47 190 8.3
2014-Dec-19 22:42 188 7.8
2014-Dec-19 22:37 188 7.8
2014-Dec-19 22:32 188 7.8
2014-Dec-19 22:27 188 7.8
2014-Dec-19 22:22 188 7.8
2014-Dec-19 22:17 188 7.8
2014-Dec-19 22:12 188 7.8
2014-Dec-19 22:07 188 7.8
2014-Dec-19 22:02 188 7.8
2014-Dec-19 21:57 188 7.8
2014-Dec-19 21:52 188 7.8
2014-Dec-19 21:47 188 7.8
2014-Dec-19 21:42 188 7.8
2014-Dec-19 21:37 188 7.8
2014-Dec-19 21:32 188 7.8
2014-Dec-19 21:27 188 7.8
2014-Dec-19 21:22 188 7.8
2014-Dec-19 21:17 188 7.8
2014-Dec-19 21:12 188 7.8
2014-Dec-19 21:07 188 8.3
2014-Dec-19 21:02 188 8.3
2014-Dec-19 20:57 188 8.3
2014-Dec-19 20:52 188 8.3
2014-Dec-19 20:47 188 8.9
2014-Dec-19 20:42 188 8.9
2014-Dec-19 20:37 188 8.9
2014-Dec-19 20:32 188 8.9
2014-Dec-19 20:27 188 8.9
2014-Dec-19 20:22 188 9.4
2014-Dec-19 20:17 188 9.4
2014-Dec-19 20:12 188 9.4
2014-Dec-19 20:07 188 9.4
2014-Dec-19 20:02 188 9.4
2014-Dec-19 19:57 188 9.4
2014-Dec-19 19:52 188 9.4
2014-Dec-19 19:47 188 10.0
2014-Dec-19 19:42 188 10.0
2014-Dec-19 19:37 188 0 gusting 2 10.0
2014-Dec-19 19:32 188 10.0
2014-Dec-19 19:27 188 10.6
2014-Dec-19 19:22 188 10.6
2014-Dec-19 19:17 188 10.6
2014-Dec-19 19:12 188 10.6
2014-Dec-19 19:07 188 10.6
2014-Dec-19 19:02 188 10.6
2014-Dec-19 18:57 188 10.6
2014-Dec-19 18:52 188 10.6
2014-Dec-19 18:47 188 11.1
2014-Dec-19 18:42 188 11.1
2014-Dec-19 18:37 188 11.1
2014-Dec-19 18:32 188 11.7
2014-Dec-19 18:27 188 11.7
2014-Dec-19 18:22 188 1 gusting 4 11.7
2014-Dec-19 18:17 188 2 gusting 4 12.2
2014-Dec-19 18:12 186 1 gusting 4 12.2
2014-Dec-19 18:07 177 1 gusting 4 12.2
2014-Dec-19 18:02 179 1 gusting 5 12.2
2014-Dec-19 17:57 178 2 gusting 5 12.8
2014-Dec-19 17:52 170 2 gusting 5 12.8
2014-Dec-19 17:47 186 1 gusting 5 12.8
2014-Dec-19 17:42 194 2 gusting 5 12.8
2014-Dec-19 17:37 189 1 gusting 4 13.3
2014-Dec-19 17:32 180 1 gusting 4 13.3
2014-Dec-19 17:27 178 0 gusting 4 13.3
2014-Dec-19 17:22 171 0 gusting 4 13.3
2014-Dec-19 17:17 169 0 gusting 4 13.9
2014-Dec-19 17:12 169 1 gusting 4 13.9
2014-Dec-19 17:07 169 0 gusting 3 13.9
2014-Dec-19 17:02 167 0 gusting 4 14.4
2014-Dec-19 16:57 167 1 gusting 4 14.4
2014-Dec-19 16:52 167 2 gusting 4 14.4
2014-Dec-19 16:47 160 1 gusting 4 15.0
2014-Dec-19 16:42 158 0 gusting 3 15.0
2014-Dec-19 16:37 163 15.0
2014-Dec-19 16:32 163 0 gusting 4 15.6
2014-Dec-19 16:27 163 1 gusting 5 15.6
2014-Dec-19 16:22 167 1 gusting 5 15.6
2014-Dec-19 16:17 165 1 gusting 4 15.6
2014-Dec-19 16:12 161 16.1
2014-Dec-19 16:07 161 16.1
2014-Dec-19 16:02 161 16.1
2014-Dec-19 15:57 161 16.1
2014-Dec-19 15:52 161 16.1
2014-Dec-19 15:47 161 15.6
2014-Dec-19 15:42 161 16.1
2014-Dec-19 15:37 169 16.1
2014-Dec-19 15:32 173 15.6
2014-Dec-19 15:27 173 15.6
2014-Dec-19 15:22 173 15.6
2014-Dec-19 15:17 173 15.6
2014-Dec-19 15:12 173 15.6
2014-Dec-19 15:07 173 0 gusting 4 15.6
2014-Dec-19 15:02 173 1 gusting 4 15.6
2014-Dec-19 14:57 172 1 gusting 4 15.6
2014-Dec-19 14:52 187 1 gusting 4 15.6
2014-Dec-19 14:47 186 2 gusting 4 15.6
2014-Dec-19 14:42 189 1 gusting 5 15.6
2014-Dec-19 14:37 186 1 gusting 5 15.6
2014-Dec-19 14:32 178 0 gusting 4 15.0
2014-Dec-19 14:27 131 0 gusting 4 15.0
2014-Dec-19 14:22 117 0 gusting 4 14.4
2014-Dec-19 14:17 117 0 gusting 5 14.4
2014-Dec-19 14:12 131 2 gusting 5 14.4
2014-Dec-19 14:07 142 1 gusting 5 14.4
2014-Dec-19 14:02 150 14.4
2014-Dec-19 13:57 128 14.4
2014-Dec-19 13:52 121 0 gusting 5 13.9
2014-Dec-19 13:47 121 2 gusting 5 13.9
2014-Dec-19 13:42 121 1 gusting 5 13.9
2014-Dec-19 13:37 142 1 gusting 5 13.9
2014-Dec-19 13:32 129 1 gusting 5 13.9
2014-Dec-19 13:27 112 1 gusting 5 13.9
2014-Dec-19 13:22 155 0 gusting 5 13.9
2014-Dec-19 13:17 150 0 gusting 4 13.9
2014-Dec-19 13:12 102 0 gusting 4 13.3
2014-Dec-19 13:07 102 0 gusting 4 13.3
2014-Dec-19 13:02 118 1 gusting 4 13.3